Total_Precipitation_Accumulation
0.02 0.01 0.02 0.02 0.02 0.03 0.04 0.04 0.01 0.04 0.06 0.05 0.03 0.02 0.01 0.01 0.01 0.02 0.04 0.04 0.04 0.04 0.07 0.11 0.13 0.13 0.12
0.05 0.05 0.04 0.01 0.01 0.01 0.01 0.01 0.01 0.02 0.04 0.04 0.04 0.03 0.03 0.02 0.01 0.01 0.01 0.03 0.05 0.05 0.05 0.05 0.05 0.05 0.06
0.09 0.07 0.06 0.04 0.03 0.02 0.01 0.01 0.01 0.01 0.01 0.01 0.02 0.02 0.01 0.02 0.01 0.01 0.01 0.01 0.02 0.04 0.08 0.11 0.16 0.18 0.13
0.13 0.14 0.16 0.18 0.24 0.28 0.23 0.14 0.09 0.06 0.04 0.03 0.04 0.04 0.03 0.03 0.02 0.02 0.02 0.03 0.04 0.06 0.08 0.09 0.13 0.17 0.21
0.13 0.22 0.28 0.32 0.37 0.38 0.40 0.30 0.27 0.24 0.24 0.25 0.25 0.21 0.13 0.08 0.05 0.04 0.04 0.04 0.06 0.08 0.12 0.16 0.22 0.26 0.31
0.12 0.12 0.12 0.18 0.21 0.29 0.35 0.34 0.25 0.14 0.19 0.18 0.23 0.31 0.36 0.33 0.30 0.17 0.11 0.07 0.09 0.12 0.22 0.32 0.36 0.36 0.40
0.06 0.05 0.06 0.08 0.11 0.12 0.16 0.21 0.18 0.12 0.17 0.15 0.16 0.16 0.16 0.22 0.27 0.24 0.24 0.24 0.26 0.31 0.34 0.44 0.51 0.56 0.59
0.04 0.05 0.08 0.07 0.08 0.12 0.12 0.14 0.12 0.08 0.08 0.13 0.08 0.11 0.11 0.11 0.18 0.16 0.17 0.22 0.28 0.35 0.40 0.46 0.55 0.62 0.63
0.05 0.06 0.08 0.06 0.05 0.04 0.05 0.08 0.11 0.08 0.11 0.15 0.14 0.16 0.18 0.16 0.17 0.27 0.30 0.32 0.36 0.40 0.44 0.44 0.46 0.49 0.51
0.04 0.04 0.03 0.02 0.04 0.03 0.03 0.07 0.10 0.09 0.04 0.08 0.10 0.14 0.19 0.21 0.24 0.28 0.31 0.39 0.42 0.43 0.41 0.39 0.34 0.28 0.26
0.03 0.03 0.03 0.04 0.04 0.04 0.03 0.05 0.09 0.10 0.16 0.15 0.12 0.18 0.23 0.24 0.34 0.34 0.28 0.27 0.21 0.23 0.26 0.28 0.29 0.29 0.20
0.04 0.04 0.05 0.06 0.08 0.07 0.06 0.07 0.10 0.13 0.19 0.22 0.17 0.21 0.29 0.31 0.26 0.25 0.22 0.19 0.17 0.15 0.15 0.23 0.19 0.20 0.21
0.03 0.03 0.03 0.03 0.04 0.05 0.07 0.08 0.09 0.15 0.16 0.13 0.15 0.18 0.19 0.20 0.19 0.20 0.25 0.16 0.15 0.14 0.12 0.11 0.10 0.10 0.10
0.02 0.01 0.01 0.01 0.02 0.02 0.02 0.03 0.04 0.04 0.07 0.13 0.14 0.13 0.12 0.12 0.12 0.13 0.14 0.13 0.14 0.16 0.14 0.12 0.10 0.07 0.05
0.03 0.03 0.02 0.02 0.02 0.02 0.02 0.01 0.01 0.01 0.02 0.03 0.07 0.11 0.12 0.13 0.12 0.10 0.11 0.11 0.11 0.11 0.10 0.09 0.07 0.05 0.04
0.05 0.05 0.04 0.03 0.04 0.04 0.02 0.01 0.00 0.00 0.00 0.01 0.02 0.05 0.08 0.13 0.17 0.13 0.13 0.12 0.11 0.10 0.08 0.07 0.05 0.03 0.03
0.07 0.07 0.05 0.05 0.09 0.04 0.02 0.01 0.00 0.00 0.00 0.00 0.00 0.01 0.02 0.07 0.14 0.17 0.16 0.17 0.17 0.16 0.13 0.11 0.08 0.05 0.03